[[{"header":{"parameterUnit":"m.s-1","parameterCategory":1,"la1":30.2991,"la2":30.254,"lo1":-89.0895,"lo2":-89.0444,"dy":0.0017,"dx":0.0017,"nx":28,"ny":28,"refTime":"2023-09-20T03:00:00:Z","depth":0,"parameterNumber":2,"parameterNumberName":"U-component_of_WINDS"},"data":[0,0,0,0,0,0,0,0,0,0,0,0,0,0,0,0,0,0,0,0,0,0,0,0,0,0,0,0,0,0,0,0,0,0,0,0,0,0,0,0,0,0,0,0,0,0,0,0,0,0,0,0,0,0,0,0,0,0,-4.3907,-4.3905,0,-4.3736,-4.3734,-4.3732,-4.3573,-4.3571,-4.3569,-4.3567,-4.3384,-4.3381,-4.3378,0,0,0,0,0,0,0,0,0,0,0,0,0,-4.4091,-4.4089,-4.3907,-4.3905,-4.3903,-4.3737,-4.3734,-4.3732,-4.3573,-4.3571,-4.3569,-4.3566,-4.3385,-4.3381,-4.3378,0,0,0,0,0,0,0,0,0,0,0,0,0,-4.3975,-4.4088,-4.3908,-4.3804,-4.3793,-4.3737,-4.3734,-4.3731,-4.3574,-4.3571,-4.3568,-4.3565,-4.3386,-4.3382,-4.3377,-4.3407,0,0,-4.3363,-4.3361,0,0,0,0,0,0,0,0,-4.3982,-4.3968,-4.3822,-4.3811,-4.3799,-4.3673,-4.3732,-4.3622,-4.3575,-4.3657,-4.3567,-4.3564,-4.3482,-4.3469,-4.3443,-4.3399,-4.3391,-4.3363,-4.336,-4.3358,-4.3357,0,0,0,0,0,0,0,-4.399,-4.3975,-4.3839,-4.382,-4.3806,-4.3764,-4.3745,-4.371,-4.3588,-4.3649,-4.3638,-4.362,-4.3475,-4.3448,-4.3438,-4.3388,-4.3363,-4.3359,-4.3356,-4.3354,-4.3362,-4.3364,0,0,0,0,0,0,-4.4015,-4.3982,-4.3845,-4.3834,-4.3885,-4.3764,-4.3741,-4.3716,-4.3588,-4.3565,-4.3623,-4.3613,-4.3458,-4.3443,-4.3431,-4.3459,-4.3358,-4.3354,-4.3351,-4.3359,-4.3362,-4.3365,0,0,0,0,0,0,-4.4019,-4.4004,-4.3852,-4.3905,-4.3883,-4.3764,-4.3737,-4.3714,-4.3687,-4.3567,-4.3544,-4.3618,-4.3455,-4.3437,-4.3415,-4.345,-4.3352,-4.3347,-4.3355,-4.336,-4.3364,-4.3514,0,0,0,0,0,0,-4.4025,-4.4007,-4.4018,-4.3907,-4.388,-4.3841,-4.3739,-4.3713,-4.3681,-4.3667,-4.3557,-4.3536,-4.3451,-4.3423,-4.3411,-4.3442,-4.3344,-4.3351,-4.3357,-4.3362,-4.3506,-4.3523,-4.3538,0,0,0,0,0,-4.4032,-4.4065,-4.4019,-4.4003,-4.3892,-4.3843,-4.3828,-4.3732,-4.3684,-4.3694,-4.3618,-4.3539,-4.3449,-4.3422,-4.3407,-4.3437,-4.3349,-4.3355,-4.3362,-4.3498,-4.352,-4.3538,0,0,0,0,0,0,-4.4179,-4.4048,-4.3996,-4.3994,-4.3932,-4.3817,-4.3825,-4.3758,-4.3705,-4.3694,-4.3575,-4.3552,-4.3544,-4.3488,-4.346,-4.3461,-4.3388,-4.3392,-4.3497,-4.3517,-4.3533,-4.3545,-4.334,0,0,0,0,0,-4.4212,-4.4185,-4.4071,-4.408,-4.4052,-4.3945,-4.392,-4.3852,-4.3781,-4.3753,-4.3675,-4.3607,-4.3564,-4.3537,-4.349,-4.3498,-4.3472,-4.3511,-4.3528,-4.3542,-4.3546,-4.3547,-4.3564,-4.3387,-4.3387,-4.3387,0,0,-4.4277,-4.4203,-4.4192,-4.4108,-4.4051,-4.4025,-4.3923,-4.3899,-4.3878,-4.3748,-4.3724,-4.3665,-4.3582,-4.3576,-4.3569,-4.3529,-4.359,-4.355,-4.3563,-4.3558,-4.3556,-4.3573,-4.3588,-4.3392,-4.3391,-4.339,0,0,-4.4384,-4.4325,-4.4327,-4.4274,-4.4192,-4.4121,-4.4122,-4.4018,-4.3975,-4.395,-4.3853,-4.3826,-4.3753,-4.3698,-4.3661,-4.3753,-4.3679,-4.3741,-4.3825,-4.3828,-4.3842,-4.3854,-4.3887,-4.39,-4.3746,-4.3746,-4.3746,0,-4.4475,-4.4433,-4.4335,-4.4319,-4.4284,-4.4171,-4.4171,-4.4124,-4.4029,-4.4008,-4.3966,-4.3875,-4.381,-4.3791,-4.3814,-4.3788,-4.3784,-4.3751,-4.3849,-4.386,-4.3869,-4.3899,-4.3912,-4.3754,-4.3753,-4.3752,-4.3752,0,-4.455,-4.4523,-4.4534,-4.4451,-4.4418,-4.4409,-4.4309,-4.4288,-4.4224,-4.4158,-4.4135,-4.4055,-4.3991,-4.3981,-4.3917,-4.3954,-4.3932,-4.3872,-4.3795,-4.3896,-4.3922,-4.3933,-4.3766,-4.3763,-4.376,-4.3758,0,0,-4.474,-4.4606,-4.4612,-4.4573,-4.4476,-4.4452,-4.444,-4.4381,-4.4365,-4.4305,-4.4291,-4.4235,-4.4179,-4.4138,-4.4067,-4.407,-4.4149,-4.4008,-4.4005,-4.4037,-4.4185,-4.4231,-4.4246,-4.4101,-4.4103,-4.4104,-4.4192,0,-4.483,-4.4803,-4.4716,-4.4714,-4.4689,-4.4583,-4.4572,-4.4511,-4.445,-4.4418,-4.4349,-4.4311,-4.4241,-4.4215,-4.4214,-4.414,-4.4177,-4.4132,-4.4085,-4.4085,-4.4108,-4.4259,-4.4306,-4.4393,-4.4202,-4.4203,-4.4204,0,-4.493,-4.4881,-4.4878,-4.4786,-4.4771,-4.4763,-4.4704,-4.4675,-4.4604,-4.4559,-4.4516,-4.4439,-4.4419,-4.4352,-4.4323,-4.4295,-4.4271,-4.4232,-4.4233,-4.4223,-4.415,-4.4253,-4.4418,-4.4431,-4.4219,-4.4218,-4.4217,0,-4.5069,-4.5002,-4.4993,-4.4963,-4.4854,-4.4852,-4.4806,-4.4732,-4.4703,-4.4651,-4.4631,-4.4577,-4.4546,-4.4506,-4.4416,-4.4375,-4.4398,-4.4322,-4.4359,-4.4362,-4.4366,-4.4367,-4.4529,-4.4354,-4.4353,-4.4353,-4.4353,0,-4.5178,-4.518,-4.5054,-4.5048,-4.5048,-4.4949,-4.4951,-4.4895,-4.4831,-4.4811,-4.4716,-4.4699,-4.4583,-4.4552,-4.4482,-4.447,-4.4456,-4.4419,-4.44,-4.4427,-4.4432,-4.4408,-4.4399,-4.4356,-4.4356,-4.4355,-4.4355,0,-4.5332,-4.5248,-4.523,-4.5131,-4.5106,-4.5111,-4.5024,-4.5014,-4.495,-4.4926,-4.4915,-4.4812,-4.4772,-4.468,-4.4614,-4.4567,-4.4572,-4.4538,-4.4597,-4.4585,-4.4627,-4.4625,-4.4779,-4.4794,-4.4611,-4.4613,-4.4614,0,-4.5406,-4.5406,-4.5308,-4.529,-4.5249,-4.522,-4.5192,-4.5095,-4.5069,-4.4991,-4.499,-4.4944,-4.4901,-4.4842,-4.476,-4.471,-4.4674,-4.4732,-4.4665,-4.4694,-4.4674,-4.4675,-4.4675,-4.4746,-4.4748,-4.475,-4.4752,0,-4.5547,-4.5507,-4.547,-4.5421,-4.5391,-4.5346,-4.5296,-4.5286,-4.5177,-4.5153,-4.5113,-4.508,-4.5016,-4.4971,-4.4909,-4.486,-4.4788,-4.4775,-4.478,-4.4807,-4.4841,-4.4823,-4.4636,-4.477,-4.4768,-4.4767,-4.4766,-4.4765,-4.5662,-4.5658,-4.559,-4.5554,-4.5508,-4.5464,-4.5451,-4.5387,-4.5352,-4.5294,-4.5239,-4.5205,-4.5136,-4.5046,-4.5003,-4.4974,-4.4937,-4.4946,-4.4947,-4.4951,-4.4963,-4.4848,-4.4962,-4.4962,-4.4961,-4.4961,-4.496,0,-4.5798,-4.575,-4.5718,-4.5654,-4.5626,-4.5565,-4.5507,-4.5487,-4.5459,-4.5403,-4.5364,-4.5319,-4.5276,-4.5194,-4.5143,-4.5136,-4.5102,-4.5126,-4.5125,-4.5115,-4.4999,-4.4999,-4.5155,-4.5155,-4.5155,-4.5155,-4.5155,-4.5155,-4.5865,-4.5856,-4.5808,-4.5775,-4.5726,-4.5695,-4.5667,-4.5627,-4.5582,-4.5537,-4.5502,-4.545,-4.5383,-4.5328,-4.5286,-4.5262,-4.5248,-4.5283,-4.5249,-4.5141,-4.5123,-4.5105,-4.5105,-4.5281,-4.5281,-4.5367,-4.5368,-4.5369]},{"header":{"parameterUnit":"m.s-1","parameterCategory":1,"la1":30.2991,"la2":30.254,"lo1":-89.0895,"lo2":-89.0444,"dy":0.0017,"dx":0.0017,"nx":28,"ny":28,"refTime":"2023-09-20T03:00:00:Z","depth":0,"parameterNumber":3,"parameterNumberName":"V-component_of_WINDS"},"data":[0,0,0,0,0,0,0,0,0,0,0,0,0,0,0,0,0,0,0,0,0,0,0,0,0,0,0,0,0,0,0,0,0,0,0,0,0,0,0,0,0,0,0,0,0,0,0,0,0,0,0,0,0,0,0,0,0,0,-4.1094,-4.1095,0,-4.1245,-4.1246,-4.1248,-4.1257,-4.1255,-4.1254,-4.1252,-4.1401,-4.1406,-4.1412,0,0,0,0,0,0,0,0,0,0,0,0,0,-4.0805,-4.081,-4.1093,-4.1095,-4.1097,-4.1244,-4.1246,-4.1249,-4.1257,-4.1255,-4.1253,-4.1251,-4.1399,-4.1406,-4.1412,0,0,0,0,0,0,0,0,0,0,0,0,0,-4.094,-4.0812,-4.1093,-4.112,-4.1123,-4.1244,-4.1247,-4.1249,-4.1258,-4.1255,-4.1253,-4.125,-4.1397,-4.1405,-4.1413,-4.1516,0,0,-4.1439,-4.1443,0,0,0,0,0,0,0,0,-4.0933,-4.0951,-4.1114,-4.1118,-4.1122,-4.123,-4.1199,-4.1338,-4.1258,-4.1207,-4.1252,-4.1249,-4.1346,-4.1358,-4.1392,-4.1523,-4.153,-4.144,-4.1445,-4.1448,-4.1451,0,0,0,0,0,0,0,-4.0923,-4.0945,-4.1153,-4.1116,-4.1121,-4.1121,-4.1138,-4.1226,-4.1288,-4.1211,-4.1212,-4.123,-4.1347,-4.1384,-4.1395,-4.1532,-4.1439,-4.1447,-4.1452,-4.1455,-4.1751,-4.1753,0,0,0,0,0,0,-4.091,-4.0937,-4.1148,-4.1158,-4.102,-4.1129,-4.1147,-4.1198,-4.1288,-4.1299,-4.1232,-4.123,-4.1371,-4.1386,-4.1401,-4.1524,-4.1448,-4.1456,-4.1461,-4.1748,-4.1751,-4.1754,0,0,0,0,0,0,-4.0904,-4.0929,-4.1142,-4.1048,-4.1075,-4.1136,-4.1193,-4.1202,-4.1238,-4.1304,-4.1314,-4.1258,-4.1369,-4.1389,-4.1487,-4.153,-4.146,-4.1467,-4.1744,-4.1749,-4.1753,-4.1774,0,0,0,0,0,0,-4.0895,-4.0926,-4.0968,-4.1049,-4.108,-4.1228,-4.1196,-4.1207,-4.1253,-4.1252,-4.1331,-4.1341,-4.1369,-4.1474,-4.1495,-4.154,-4.1474,-4.1741,-4.1746,-4.1751,-4.177,-4.1779,-4.1786,0,0,0,0,0,-4.0885,-4.0968,-4.097,-4.0996,-4.1134,-4.1231,-4.1248,-4.128,-4.1257,-4.1298,-4.1339,-4.1339,-4.1522,-4.1484,-4.1508,-4.1556,-4.1738,-4.1745,-4.1751,-4.1766,-4.1777,-4.1786,0,0,0,0,0,0,-4.089,-4.0979,-4.0983,-4.1094,-4.1155,-4.1232,-4.1285,-4.1291,-4.1358,-4.1354,-4.1388,-4.1406,-4.1502,-4.1539,-4.1496,-4.1658,-4.1627,-4.1638,-4.1631,-4.1641,-4.1649,-4.1638,-4.1481,0,0,0,0,0,-4.0904,-4.0978,-4.1051,-4.1142,-4.1172,-4.1223,-4.1267,-4.1286,-4.1349,-4.1375,-4.1424,-4.1483,-4.1554,-4.16,-4.1669,-4.1775,-4.1791,-4.1819,-4.1827,-4.1834,-4.1843,-4.1898,-4.1911,-4.1775,-4.1775,-4.1775,0,0,-4.0933,-4.0991,-4.1036,-4.1144,-4.1194,-4.1266,-4.1245,-4.1324,-4.1377,-4.1386,-4.1482,-4.1519,-4.1588,-4.169,-4.1737,-4.1723,-4.1884,-4.1842,-4.1847,-4.1852,-4.1906,-4.1919,-4.193,-4.178,-4.1779,-4.1778,0,0,-4.1025,-4.1077,-4.1158,-4.1207,-4.1282,-4.1315,-4.1334,-4.1411,-4.1436,-4.1533,-4.154,-4.1603,-4.1725,-4.1773,-4.1813,-4.1919,-4.192,-4.194,-4.1982,-4.2036,-4.2046,-4.2056,-4.2091,-4.2103,-4.1949,-4.1949,-4.1949,0,-4.1051,-4.1164,-4.1198,-4.1276,-4.1322,-4.1334,-4.1414,-4.146,-4.1553,-4.1583,-4.1567,-4.1718,-4.1766,-4.1877,-4.1903,-4.1936,-4.1956,-4.1931,-4.2042,-4.2052,-4.2062,-4.2095,-4.2109,-4.1951,-4.1951,-4.195,-4.195,0,-4.1192,-4.1269,-4.1325,-4.1415,-4.1467,-4.1546,-4.1589,-4.1637,-4.1651,-4.1684,-4.178,-4.1837,-4.1916,-4.1944,-4.1959,-4.2057,-4.2046,-4.2036,-4.2005,-4.2076,-4.2108,-4.2121,-4.1953,-4.1953,-4.1952,-4.1952,0,0,-4.1291,-4.1398,-4.1417,-4.1457,-4.154,-4.1599,-4.1676,-4.1755,-4.1794,-4.1857,-4.1921,-4.2023,-4.2013,-4.2059,-4.2078,-4.2125,-4.2201,-4.2109,-4.2111,-4.2122,-4.231,-4.2316,-4.233,-4.2203,-4.2206,-4.2208,-4.2303,0,-4.139,-4.153,-4.1561,-4.1681,-4.1751,-4.1762,-4.1829,-4.1885,-4.1918,-4.198,-4.2015,-4.2086,-4.2069,-4.2096,-4.2144,-4.2182,-4.2239,-4.2176,-4.2259,-4.2262,-4.224,-4.2348,-4.2355,-4.2443,-4.2316,-4.2318,-4.232,0,-4.1524,-4.1591,-4.1718,-4.1788,-4.1819,-4.1879,-4.1951,-4.2012,-4.2074,-4.2094,-4.2144,-4.2157,-4.2235,-4.2201,-4.2306,-4.2262,-4.2298,-4.2321,-4.2325,-4.2333,-4.2294,-4.2356,-4.2472,-4.2484,-4.2341,-4.2339,-4.2337,0,-4.1581,-4.1702,-4.1793,-4.1827,-4.1912,-4.1954,-4.199,-4.2051,-4.2095,-4.2158,-4.2186,-4.2256,-4.2295,-4.2347,-4.2378,-4.2351,-4.248,-4.2449,-4.2496,-4.2495,-4.2522,-4.2519,-4.2642,-4.2548,-4.2547,-4.2547,-4.2547,0,-4.1687,-4.1764,-4.1819,-4.1875,-4.196,-4.1993,-4.2075,-4.2112,-4.2165,-4.2225,-4.2239,-4.2295,-4.2333,-4.2393,-4.2417,-4.2499,-4.2516,-4.2532,-4.2538,-4.2531,-4.2528,-4.2554,-4.2547,-4.2551,-4.255,-4.2549,-4.2549,0,-4.1765,-4.1806,-4.1905,-4.1977,-4.1997,-4.2056,-4.2116,-4.2169,-4.2201,-4.2277,-4.2297,-4.2347,-4.2418,-4.2454,-4.2543,-4.2559,-4.265,-4.2653,-4.263,-4.2631,-4.2675,-4.267,-4.2818,-4.2837,-4.2731,-4.2732,-4.2733,0,-4.183,-4.1889,-4.1967,-4.2009,-4.2047,-4.2115,-4.216,-4.2194,-4.224,-4.2313,-4.2356,-4.2429,-4.2489,-4.2602,-4.2644,-4.2711,-4.2714,-4.2761,-4.2724,-4.2714,-4.2711,-4.2707,-4.2711,-4.2767,-4.2768,-4.2769,-4.2769,0,-4.1939,-4.1956,-4.2021,-4.2093,-4.2146,-4.2204,-4.2261,-4.2294,-4.2336,-4.2387,-4.2461,-4.2507,-4.2597,-4.2667,-4.2737,-4.2772,-4.2777,-4.2781,-4.2795,-4.2787,-4.277,-4.2778,-4.2646,-4.2777,-4.2776,-4.2776,-4.2775,-4.2775,-4.2011,-4.2063,-4.2125,-4.2196,-4.2243,-4.2295,-4.2347,-4.2385,-4.2448,-4.2525,-4.2541,-4.2618,-4.2675,-4.2769,-4.2806,-4.2865,-4.2854,-4.2875,-4.288,-4.2884,-4.2885,-4.2762,-4.2878,-4.2877,-4.2877,-4.2877,-4.2877,0,-4.2119,-4.2159,-4.2225,-4.2304,-4.2359,-4.236,-4.2422,-4.2467,-4.2536,-4.2589,-4.2647,-4.273,-4.2798,-4.2845,-4.2913,-4.295,-4.2954,-4.2967,-4.2963,-4.2971,-4.2892,-4.2872,-4.2962,-4.2962,-4.2962,-4.2962,-4.2962,-4.2962,-4.2182,-4.2269,-4.2292,-4.24,-4.2439,-4.2516,-4.2551,-4.2598,-4.264,-4.2733,-4.2789,-4.282,-4.287,-4.2941,-4.3002,-4.3013,-4.3037,-4.3049,-4.306,-4.2986,-4.2977,-4.2968,-4.2949,-4.3055,-4.3055,-4.3134,-4.3135,-4.3135]}]]